CW9676 Weather Reports


time (UTC)temp
F
wind
direction
speed
knots
gust
knots
rain 1hr
in
rain 24hr
in
rain mn
in
humidity
%
barometer
mb
20260903233258 77 58 1.7 4.3 0.00 0.00 0.00 50 1004.6
20260903232319 77 58 0.9 3.5 0.00 0.00 0.00 48 1004.6
20260903231336 77 57 0.9 4.3 0.00 0.00 0.00 49 1004.5
20260903230336 77 52 1.7 4.3 0.00 0.00 0.00 51 1004.5
20260903225325 79 46 1.7 4.3 0.00 0.00 0.00 46 1004.5
20260903224302 80 55 0.9 4.3 0.00 0.00 0.00 43 1004.5
20260903223238 81 32 0.9 3.5 0.00 0.00 0.00 41 1004.5
20260903222257 80 258 0.0 2.6 0.00 0.00 0.00 42 1004.4
20260903221227 80 192 0.9 2.6 0.00 0.00 0.00 43 1004.5
20260903220247 79 153 0.0 1.7 0.00 0.00 0.00 44 1004.5
20260903215306 79 67 0.9 4.3 0.00 0.00 0.00 44 1004.7
20260903214319 79 103 0.0 4.3 0.00 0.00 0.00 44 1004.8
20260903213253 78 29 0.9 0.9 0.00 0.00 0.00 43 1004.9
20260903212300 79 45 1.7 7.0 0.00 0.00 0.00 43 1005.1
20260903211244 79 145 2.6 7.0 0.00 0.00 0.00 42 1005.0
20260903210230 80 78 1.7 7.8 0.00 0.00 0.00 41 1005.2
20260903205217 80 100 3.5 7.8 0.00 0.00 0.00 42 1005.2
20260903204234 84 129 2.6 7.0 0.00 0.00 0.00 38 1005.2
20260903203223 83 317 3.5 7.0 0.00 0.00 0.00 40 1005.2
20260903201058 81 359 2.6 8.7 0.00 0.00 0.00 45 1005.7
20260903200107 80 4 2.6 7.8 0.00 0.00 0.00 48 1005.7
20260903195046 77 111 2.6 7.8 0.00 0.00 0.00 51 1006.0
20260903194046 76 166 2.6 4.3 0.00 0.00 0.00 53 1006.1
20260903193026 75 193 1.7 4.3 0.00 0.00 0.00 61 1006.1
20260903192034 73 142 2.6 6.1 0.00 0.00 0.00 64 1006.2
20260903191046 73 191 3.5 7.0 0.00 0.00 0.00 62 1006.3
20260903190045 73 177 5.2 9.6 0.00 0.00 0.00 61 1006.4
20260903183912 74 186 5.2 11.3 0.00 0.00 0.00 58 1006.9
20260903182912 75 145 4.3 9.6 0.00 0.00 0.00 55 1006.9
20260903181912 75 215 2.6 9.6 0.00 0.00 0.00 56 1007.0
20260903180905 74 4 4.3 9.6 0.00 0.00 0.00 56 1007.1
20260903175913 74 256 4.3 8.7 0.00 0.00 0.00 57 1007.1
20260903173717 73 4 3.5 7.8 0.00 0.00 0.00 61 1007.1
20260903172722 72 221 2.6 7.8 0.00 0.00 0.00 65 1007.2
20260903171717 71 161 3.5 7.8 0.00 0.00 0.00 64 1007.2
20260903170709 71 225 3.5 7.8 0.00 0.00 0.00 65 1007.0
20260903165656 71 191 4.3 7.8 0.00 0.00 0.00 63 1007.0
20260903164709 73 195 2.6 6.1 0.00 0.00 0.00 56 1007.0
20260903163638 73 172 2.6 8.7 0.00 0.00 0.00 55 1006.8
20260903162647 74 176 2.6 8.7 0.00 0.00 0.00 55 1006.8
20260903161655 73 220 1.7 5.2 0.00 0.00 0.00 57 1006.9
20260903160702 72 163 1.7 4.3 0.00 0.00 0.00 59 1006.9
20260903154445 71 175 2.6 7.0 0.00 0.00 0.00 61 1006.9
20260903153429 71 186 1.7 5.2 0.00 0.00 0.00 64 1006.8
20260903152436 70 167 1.7 4.3 0.00 0.00 0.00 64 1006.9
20260903151421 70 162 2.6 6.1 0.00 0.00 0.00 67 1006.9
20260903150406 69 199 3.5 9.6 0.00 0.00 0.00 69 1006.6
20260903145431 69 210 5.2 9.6 0.00 0.00 0.00 70 1006.7
20260903144426 68 164 3.5 7.8 0.00 0.00 0.00 71 1006.6
20260903143407 68 221 5.2 9.6 0.00 0.00 0.00 72 1006.5
20260903142417 68 223 5.2 9.6 0.00 0.00 0.00 72 1006.5
20260903135145 67 215 4.3 7.8 0.00 0.00 0.00 71 1006.6
20260903134137 67 215 3.5 6.1 0.00 0.00 0.00 72 1006.5
20260903133147 66 242 2.6 4.3 0.00 0.00 0.00 72 1006.6
20260903132209 66 226 1.7 4.3 0.00 0.00 0.00 72 1006.6
20260903131158 66 4 2.6 4.3 0.00 0.00 0.00 71 1006.6
20260903130217 66 202 1.7 4.3 0.00 0.00 0.00 70 1006.4
20260903125206 66 184 1.7 5.2 0.00 0.00 0.00 68 1006.4
20260903124221 66 182 1.7 5.2 0.00 0.00 0.00 68 1006.3
20260903123150 66 187 1.7 3.5 0.00 0.00 0.00 66 1006.2
20260903122141 66 185 1.7 5.2 0.00 0.00 0.00 64 1006.1
20260903121131 67 190 2.6 5.2 0.00 0.00 0.00 64 1006.0
20260903120146 67 200 2.6 5.2 0.00 0.00 0.00 63 1005.7
20260903115121 67 210 2.6 6.1 0.00 0.00 0.00 62 1005.5
20260903114132 67 184 3.5 6.1 0.00 0.00 0.00 62 1005.4
20260903113146 67 215 2.6 7.0 0.00 0.00 0.00 62 1005.2
20260903112158 67 221 4.3 7.0 0.00 0.00 0.00 61 1005.1
20260903111204 67 210 2.6 6.1 0.00 0.00 0.00 61 1005.0
20260903105017 68 225 2.6 4.3 0.00 0.00 0.00 60 1005.2
20260903104011 68 209 2.6 7.0 0.00 0.00 0.00 60 1005.2
20260903101854 69 206 4.3 8.7 0.00 0.00 0.00 59 1005.4
20260903094602 69 194 2.6 6.1 0.00 0.00 0.00 59 1005.6
20260903093558 69 185 3.5 8.7 0.00 0.00 0.00 58 1005.5
20260903092554 70 186 4.3 8.7 0.00 0.00 0.00 57 1005.5
20260903091531 70 202 3.5 7.8 0.00 0.00 0.00 57 1005.5
20260903090527 70 173 3.5 7.0 0.00 0.00 0.00 56 1005.6
20260903085512 70 161 2.6 4.3 0.00 0.00 0.00 55 1005.7
20260903084527 70 154 2.6 7.0 0.00 0.00 0.00 54 1005.5
20260903083528 71 148 3.5 7.0 0.00 0.00 0.00 54 1005.5
20260903082510 71 196 3.5 7.0 0.00 0.00 0.00 54 1005.6
20260903081450 71 179 3.5 6.1 0.00 0.00 0.00 54 1005.9
20260903080434 71 194 2.6 6.1 0.00 0.00 0.00 53 1006.0
20260903075422 71 225 2.6 5.2 0.00 0.00 0.00 53 1006.1
20260903074359 71 207 2.6 5.2 0.00 0.00 0.00 52 1005.9
20260903073412 71 204 2.6 5.2 0.00 0.00 0.00 52 1006.0
20260903072437 71 183 2.6 5.2 0.00 0.00 0.00 51 1006.0
20260903071423 71 210 2.6 5.2 0.00 0.00 0.00 51 1006.0
20260903070447 71 215 2.6 5.2 0.00 0.00 0.00 50 1006.1
20260903065436 71 183 3.5 7.8 0.00 0.00 0.00 50 1006.1
20260903064411 72 202 4.3 7.8 0.00 0.00 0.00 50 1006.0
20260903063404 72 212 3.5 7.0 0.00 0.00 0.00 50 1006.1
20260903062343 72 172 3.5 7.0 0.00 0.00 0.00 49 1006.2
20260903061312 72 182 2.6 7.0 0.00 0.00 0.00 48 1006.3
20260903060247 72 173 2.6 6.1 0.00 0.00 0.00 46 1006.3
20260903054121 74 192 2.6 7.0 0.00 0.00 0.00 44 1006.3
20260903053103 74 165 3.5 7.0 0.00 0.00 0.00 42 1006.3
20260903052050 74 169 2.6 5.2 0.00 0.00 0.00 41 1006.3
20260903051022 74 163 3.5 7.0 0.00 0.00 0.00 41 1006.3
20260903050044 74 163 3.5 7.0 0.00 0.00 0.00 41 1006.3
20260903045105 75 164 2.6 5.2 0.00 0.00 0.00 41 1006.4
20260903044104 75 167 3.5 7.8 0.00 0.00 0.00 41 1006.2
20260903043030 76 198 3.5 7.8 0.00 0.00 0.00 40 1006.2
20260903042049 76 190 3.5 10.4 0.00 0.00 0.00 40 1006.2
20260903041112 77 212 4.3 10.4 0.00 0.00 0.00 39 1006.2
20260903040047 77 4 5.2 9.6 0.00 0.00 0.00 39 1006.1
20260903035047 77 196 5.2 12.2 0.00 0.00 0.00 38 1006.2
20260903032958 78 4 5.2 9.6 0.00 0.00 0.00 38 1006.1
20260903030818 78 203 5.2 9.6 0.00 0.00 0.00 38 1005.9
20260903024622 78 177 4.3 12.2 0.00 0.00 0.00 37 1005.7
20260903023610 79 148 5.2 12.2 0.00 0.00 0.00 36 1005.6
20260903022545 79 4 5.2 10.4 0.00 0.00 0.00 32 1005.3
20260903020345 79 157 4.3 9.6 0.00 0.00 0.00 31 1005.3
20260903015335 80 177 4.3 9.6 0.00 0.00 0.00 30 1005.2
20260903013157 80 160 7.0 12.2 0.00 0.00 0.00 29 1005.0
20260903012153 81 166 4.3 9.6 0.00 0.00 0.00 29 1004.9
20260903011134 81 195 7.0 13.0 0.00 0.00 0.00 29 1004.9
20260903010151 81 154 7.0 13.0 0.00 0.00 0.00 29 1004.9
20260903005215 81 157 5.2 12.2 0.00 0.00 0.00 29 1004.8
20260903004152 82 144 6.1 12.2 0.00 0.00 0.00 28 1004.9
20260903003144 84 179 7.8 14.8 0.00 0.00 0.00 27 1004.8
20260903002120 85 200 7.0 14.8 0.00 0.00 0.00 27 1004.7
20260903001141 85 176 5.2 13.9 0.00 0.00 0.00 27 1004.7
20260903000110 85 175 7.0 13.9 0.00 0.00 0.00 26 1004.8